DECAYED
Showing default

SZ-17 MODULE, 59624 (Decayed)

Orbit data source: Space-Track

SZ-17 MODULE, 59624 was a payload satellite owned by ZZHGB (CN) in LEO that was launched on Thu, 26 Oct 2023 UTC launched from the Jiuquan Satellite Launch Center, China (JSC). Payloads include a variety of satellites, spacecraft, and rockets equipped with specific instruments for various scientific and technological missions. These include communications satellites like Starlink; space stations such as the ISS; scientific satellites like the Hubble; Earth observation satellites from companies like Planet Labs, Umbra, and HawkEye 360; GPS; miniature CubeSats for education and research; and military/defense satellites.

Not visible in the next 10 days
SZ-17 MODULE details
Identifier
59624, 2023-164C
Orbit
Decayed
Last TLE update2 months ago
Origin
Flag of CNZZHGB (CN / PRC)
ManufacturerCAST
MissionDecayed spacecraft
Bus & MotorSHENZHOU OM, Unknown motor
Mass~1,842 kg wet, ~1,500 kg dry
Launch date (UTC)
2023-10-26 (1 year ago)
Launch vehicleUnknown
Launch site
Jiuquan Satellite Launch Center, China (JSC)
Object type
Payload
Rocket body
Debris
Shape & HBRUnknown
Radar Cross SectionLarge (>1 m²)

Expand to show TLE details & history

TLE from 2 months ago
0 SZ-17 MODULE
1 59624U 23164C   24353.36152807  .07140113  81950-5  30278-3 0  9999
2 59624  41.4570   6.9151 0001794 173.2499 274.5824 16.43931394 36708
Epoch: 2024-12-18T08:40Z
Definitive object data (Epoch: 2024-12-18T08:40:36.025Z)
Latitude41.58441°
Longitude-123.61359°
Altitude157.817 km
Speed7.818 km/s
True Right ascension06h 15m 58s
True Declination41° 23' 53"
Sunlit
Object was in full shadow at TLE epoch
Visualization observer readout
Observer readout values are unavailable because the object's trajectory could not be propagated. This is usually caused when the trajectory data is faulty or the object's orbit has decayed.
Visualization observer readout
Observer readout values are unavailable because the object's trajectory could not be propagated. This is usually caused when the trajectory data is faulty or the object's orbit has decayed.
Orbital elements
Apogee altitude158.851 km
Perigee altitude156.506 km
Semi-major axis6,535.816 km
Eccentricity0.0001794
Inclination41.457°
RAAN6.9151°
Arg. of periapsis173.2499°
True anomaly274.56191°
Mean anomaly274.5824°
Eccentric anomaly274.57215°
Mean motion4.10765 °/min
BSTAR0.00030278
Orbital period87.64 mins
Loading maneuver chart data...
Loading historical data...
Loading historical data...
Loading historical data...
Loading historical data...
Loading historical data...
Loading historical data...
Loading historical data...
Other satellites on launch #164 in the year 2023 (2023-10-26 UTC)

SZ-17 MODULE Visibility forecast

Observer location: undefined°, undefined

This satellite is decayed
Span
Click to sort rows by Start time (UTC) header in descending order
Start Az.
Max El. time (UTC)
Max El. Az.
Max El.
End time (UTC)
End Az.
|